This demonstration page uses our WeatherBlox Daily Observations layout. Learn more.

Left ArrowRight Arrow

Hourly Observations for June 27, 2016

Temp ( °F °C ) Dew Point ( °F °C ) Humidity (%) Winds ( mph kmh ) Pressure ( in mb ) Visibility ( mi km ) Precip ( " mm )
12:51 am 00:51 Clear 83 28.3 53 11.7 36 36 E 14 22 29.90 1013 10 16 0.00 0.00
1:51 am 01:51 Mostly Clear 80 26.7 54 12.2 41 41 SE 5 7 29.87 1012 10 16 0.00 0.00
2:51 am 02:51 Clear 79 26.1 54 12.2 42 42 ESE 5 7 29.88 1012 10 16 0.00 0.00
3:51 am 03:51 Clear 79 26.1 54 12.2 42 42 ESE 6 9 29.89 1012 10 16 0.00 0.00
4:51 am 04:51 Clear 80 26.7 53 11.7 39 39 SE 7 11 29.91 1013 10 16 0.00 0.00
5:51 am 05:51 Sunny 80 26.7 55 12.8 42 42 ESE 9 15 29.93 1014 10 16 0.00 0.00
6:51 am 06:51 Sunny 83 28.3 54 12.2 37 37 E 12 19 29.95 1014 10 16 0.00 0.00
7:51 am 07:51 Sunny 86 30 53 11.7 32 32 ESE 6 9 29.96 1015 10 16 0.00 0.00
8:51 am 08:51 Sunny 86 30 55 12.8 35 35 S 7 11 29.96 1015 10 16 0.00 0.00
9:51 am 09:51 Sunny 89 31.7 54 12.2 30 30 SSE 7 11 29.95 1014 10 16 0.00 0.00
10:51 am 10:51 Sunny 89 31.7 55 12.8 31 31 SSE 12 19 29.95 1014 10 16 0.00 0.00
11:51 am 11:51 Sunny 92 33.3 55 12.8 29 29 undefined N/A 29.92 1013 10 16 0.00 0.00
12:51 pm 12:51 Sunny 95 35 54 12.2 25 25 VRB 7 11 29.88 1012 10 16 0.00 0.00
1:51 pm 13:51 Sunny 98 36.7 53 11.7 22 22 S 12 19 29.83 1010 10 16 0.00 0.00
2:51 pm 14:51 Sunny 99 37.2 52 11.1 21 21 SSW 9 15 29.81 1010 10 16 0.00 0.00
3:49 pm 15:49 Sunny with Nearby Thunderstorms 99 37 52 11 21 21 S 9 15 29.68 1005 10 16 0.00 0.00
3:51 pm 15:51 Sunny with Nearby Thunderstorms 99 37.2 51 10.6 20 20 SSE 15 24 29.80 1009 10 16 0.00 0.00
4:02 pm 16:02 Partly Cloudy with Thunderstorms 97 36.1 52 11.1 22 22 E 31 50 29.68 1005 9 14 0.00 0.00
4:12 pm 16:12 Partly Cloudy with Nearby Thunderstorms 93 33.9 55 12.8 28 28 E 29 46 29.71 1006 10 16 0.00 0.00
4:40 pm 16:40 Cloudy with Light Rain 79 26.1 66 18.9 65 65 E 21 33 29.80 1009 7 11 0.04 1.02
4:51 pm 16:51 Cloudy with Light Rain 82 27.8 66 18.9 58 58 E 17 28 29.85 1011 7 11 0.04 1.02
5:51 pm 17:51 Sunny 88 31.1 61 16.1 40 40 NNE 6 9 29.84 1011 10 16 0.00 0.03
6:51 pm 18:51 Sunny 87 30.6 62 16.7 43 43 NNE 5 7 29.83 1010 10 16 0.00 0.00
7:51 pm 19:51 Clear 83 28.3 69 20.6 63 63 E 5 7 29.83 1010 10 16 0.00 0.00
8:51 pm 20:51 Clear 80 26.7 67 19.4 64 64 E 3 6 29.85 1011 10 16 0.00 0.00
9:51 pm 21:51 Clear 79 26.1 65 18.3 62 62 ESE 3 6 29.86 1011 10 16 0.00 0.00
10:51 pm 22:51 Clear 80 26.7 61 16.1 52 52 S 6 9 29.87 1012 10 16 0.00 0.00
11:51 pm 23:51 Clear 78 25.6 64 17.8 62 62 E 5 7 29.88 1012 10 16 0.00 0.00

Powered by AerisWeather